Weather in Malorechenskoe

Russia / Republic of Crimea     44°45′30″N   34°33′31″E
temp.,
°C
wind,
m/s
gust,
m/s
humid.,
%
clouds,
%
prec.,
mm/h
press.,
hPa
HPBL,
m
27 february, sat
sat2700:00+7wnw33740 0.0 102433
03:00+7wnw44730 0.0 102253
06:00+6wnw44720 0.0 102150
09:00+8nw34700 0.0 102074
12:00+10w35660 0.0 1019317
15:00+11wnw35670 0.0 1018416
18:00+9nw34790 0.0 101778
21:00+7nnw348444 0.0 101865
28 february, sun
sun2800:00+6nnw2393100 1.1 1018188
03:00+5nw4688100 2.1 1019373
06:00+3nw6882100 0.2 1019545
09:00+3nw578277 0.3 1020601
12:00+3nw467757 0.4 1021706
15:00+2nw458567 1.0 1022536
18:00+3nw457754 0.4 1022618
21:00+2wnw448052 0.7 1024461
1 march, mon
mon100:00+1nw448251 0.2 1024325
03:00+1nw338158 0.2 1025207
06:00+1nw228198 0.0 1025274
09:00+1nnw227887 0.1 1026395
12:00+2sse117952 0.1 1027385
15:00+2e128766 0.4 1027342
18:00+2ne018287 0.3 1027399
21:00+1nnw227974 0.4 1029306
2 march, tue
tue200:00+1nnw228036 0.1 1029249
03:000nnw227525 0.1 1030246
06:000nnw22760 0.0 1030211
09:00+1nnw22720 0.0 1031294
12:00+3ssw12580 0.0 1031697
15:00+4ssw33678 0.0 1029675
18:00+3wnw347313 0.0 1027404
21:00+2nw668046 0.0 1027244
3 march, wed
wed300:00+2wnw568382 0.0 1026247
03:00+4w468488 0.0 1025407
06:00+4wnw348770 0.0 1024226
09:00+4nnw348359 0.0 1026347
12:00+5nw466943 0.1 10261038
15:00+6nw466334 0.1 1027937
18:00+5nw34670 0.0 1027344
21:00+2nw44670 0.0 1028130